EW6655 Weather Reports


time (UTC)temp
C
wind
direction
speed
KPH
gust
KPH
rain 1hr
cm
rain 24hr
cm
rain mn
cm
humidity
%
barometer
mb
20260906141502 22 199 3.2 8.0 0.00 0.00 0.00 45 1023.5
20260906140109 22 192 3.2 12.9 0.00 0.00 0.00 46 1023.5
20260906134601 22 95 3.2 11.3 0.00 0.00 0.00 48 1023.6
20260906133057 22 196 0.0 6.4 0.00 0.00 0.00 51 1023.8
20260906131554 22 193 1.6 9.7 0.00 0.00 0.00 51 1024.0
20260906130053 22 13 3.2 8.0 0.00 0.00 0.00 54 1024.1
20260906124550 22 201 3.2 8.0 0.00 0.00 0.00 55 1024.3
20260906123045 21 209 3.2 9.7 0.00 0.00 0.00 54 1024.5
20260906121542 21 5 1.6 6.4 0.00 0.00 0.00 53 1024.7
20260906120047 20 115 1.6 8.0 0.00 0.00 0.00 60 1025.0
20260906114540 20 259 3.2 6.4 0.00 0.00 0.00 61 1025.1
20260906113035 20 100 0.0 9.7 0.00 0.00 0.00 60 1025.2
20260906111536 20 209 3.2 8.0 0.00 0.00 0.00 63 1025.2
20260906110040 19 192 1.6 8.0 0.00 0.00 0.00 65 1025.5
20260906104529 19 119 1.6 8.0 0.00 0.00 0.00 63 1025.5
20260906103028 19 209 1.6 9.7 0.00 0.00 0.00 63 1025.5
20260906101526 18 199 1.6 8.0 0.00 0.00 0.00 64 1025.7
20260906100023 18 133 1.6 8.0 0.00 0.00 0.00 65 1025.8
20260906094530 18 123 1.6 4.8 0.00 0.00 0.00 67 1025.8
20260906093019 18 170 1.6 9.7 0.00 0.00 0.00 67 1025.8
20260906091516 17 217 1.6 8.0 0.00 0.00 0.00 70 1025.8
20260906090013 17 193 0.0 8.0 0.00 0.00 0.00 70 1026.2
20260906084513 16 175 1.6 8.0 0.00 0.00 0.00 70 1026.4
20260906083008 16 187 3.2 8.0 0.00 0.00 0.00 70 1026.3
20260906081517 15 197 3.2 8.0 0.00 0.00 0.00 72 1026.4
20260906080001 15 202 1.6 6.4 0.00 0.00 0.00 73 1026.7
20260906074558 14 220 1.6 9.7 0.00 0.00 0.00 77 1026.7
20260906073054 -17 0.0 0.0 0.00 0.00 0.00 1026.6
20260906071551 12 218 0.0 4.8 0.00 0.00 0.00 92 1026.4
20260906070050 11 355 0.0 0.0 0.00 0.00 0.00 94 1026.2
20260906064544 10 355 0.0 0.0 0.00 0.00 0.00 95 1026.2
20260906063042 10 355 0.0 0.0 0.00 0.00 0.00 95 1026.3
20260906061542 9 355 0.0 0.0 0.00 0.00 0.00 96 1026.4
20260906060042 8 355 0.0 0.0 0.00 0.00 0.00 95 1026.3
20260906054540 7 355 0.0 0.0 0.00 0.00 0.00 94 1026.4
20260906053039 7 355 0.0 1.6 0.00 0.00 0.00 95 1026.1
20260906051539 7 355 0.0 0.0 0.00 0.00 0.00 95 1026.2
20260906050039 7 355 0.0 1.6 0.00 0.00 0.00 94 1026.3
20260906044542 7 355 0.0 0.0 0.00 0.00 0.00 95 1026.4
20260906043043 7 355 0.0 1.6 0.00 0.00 0.00 94 1026.4
20260906041539 7 355 0.0 3.2 0.00 0.00 0.00 95 1026.4
20260906040038 7 355 1.6 3.2 0.00 0.00 0.00 95 1026.7
20260906034543 7 355 0.0 1.6 0.00 0.00 0.00 95 1026.5
20260906033035 7 355 0.0 0.0 0.00 0.00 0.00 94 1026.6
20260906031546 7 355 0.0 1.6 0.00 0.00 0.00 94 1026.4
20260906030034 7 355 0.0 1.6 0.00 0.00 0.00 94 1026.7
20260906024532 7 355 0.0 0.0 0.00 0.00 0.00 94 1026.8
20260906023032 7 355 0.0 0.0 0.00 0.00 0.00 94 1026.7
20260906021531 7 355 0.0 0.0 0.00 0.00 0.00 94 1026.8
20260906020038 7 355 0.0 1.6 0.00 0.00 0.00 93 1026.8
20260906014530 8 355 0.0 0.0 0.00 0.00 0.00 93 1026.6
20260906013026 8 355 0.0 0.0 0.00 0.00 0.00 93 1026.5
20260906011525 8 355 0.0 0.0 0.00 0.00 0.00 93 1026.5
20260906010024 8 355 0.0 1.6 0.00 0.00 0.00 93 1026.5
20260906004522 8 355 0.0 0.0 0.00 0.00 0.00 93 1026.4
20260906003026 8 355 0.0 0.0 0.00 0.00 0.00 93 1026.5
20260906001522 8 355 0.0 0.0 0.00 0.00 0.00 92 1026.6
20260906000020 8 355 0.0 0.0 0.00 0.00 0.00 92 1026.4
20260905234516 8 355 0.0 1.6 0.00 0.00 0.00 92 1026.4
20260905233017 9 355 0.0 0.0 0.00 0.00 0.00 92 1026.2
20260905231515 9 355 0.0 1.6 0.00 0.00 0.00 91 1026.4
20260905230013 9 355 0.0 3.2 0.00 0.00 0.00 92 1026.4
20260905224511 9 355 0.0 0.0 0.00 0.00 0.00 91 1026.2
20260905223028 10 355 0.0 0.0 0.00 0.00 0.00 91 1026.1
20260905221524 10 355 0.0 0.0 0.00 0.00 0.00 91 1026.3
20260905220006 10 355 0.0 1.6 0.00 0.00 0.00 91 1026.2
20260905214505 10 355 0.0 0.0 0.00 0.00 0.00 89 1026.2
20260905213002 10 355 0.0 0.0 0.00 0.00 0.00 89 1026.0
20260905211558 -17 0.0 0.0 0.00 0.00 0.00 1026.0
20260905210108 -17 0.0 0.0 0.00 0.00 0.00 1025.9
20260905204548 -17 0.0 0.0 0.00 0.00 0.00 1025.9
20260905203045 -17 0.0 0.0 0.00 0.00 0.00 1025.8
20260905201540 -17 0.0 0.0 0.00 0.00 0.00 1025.6
20260905200052 -17 0.0 0.0 0.00 0.00 0.00 1025.4
20260905194535 -17 0.0 0.0 0.00 0.00 0.00 1025.4
20260905193027 12 355 1.6 6.4 0.00 0.00 0.00 82 1025.3
20260905191526 13 355 1.6 6.4 0.00 0.00 0.00 82 1025.2
20260905190023 -17 0.0 0.0 0.00 0.00 0.00 1024.9
20260905184521 14 355 0.0 4.8 0.00 0.18 0.00 78 1024.9
20260905183017 14 355 0.0 4.8 0.00 0.18 0.00 78 1024.8
20260905181516 15 355 0.0 4.8 0.00 0.18 0.00 78 1024.7
20260905180016 15 347 0.0 4.8 0.00 0.18 0.00 76 1024.5
20260905174513 15 331 1.6 4.8 0.00 0.64 0.00 75 1024.5
20260905173012 16 296 1.6 6.4 0.00 0.64 0.00 73 1024.4
20260905171529 16 319 1.6 6.4 0.00 0.64 0.00 72 1024.2
20260905170009 16 242 1.6 12.9 0.00 0.64 0.00 70 1024.0
20260905164507 17 308 3.2 14.5 0.00 0.69 0.00 67 1023.9
20260905163007 17 5 1.6 19.3 0.00 0.69 0.00 65 1023.6
20260905161505 17 12 4.8 14.5 0.00 0.69 0.00 65 1023.6
20260905160005 17 12 3.2 12.9 0.00 0.69 0.00 64 1023.6
20260905154503 17 345 3.2 16.1 0.00 0.69 0.00 65 1023.6
20260905153004 17 295 4.8 14.5 0.00 0.69 0.00 65 1023.4
20260905151601 17 307 3.2 17.7 0.00 0.69 0.00 68 1023.3
20260905150059 18 227 3.2 16.1 0.00 0.69 0.00 67 1023.3
20260905144558 17 348 4.8 19.3 0.00 0.69 0.00 65 1023.1
20260905143055 17 15 3.2 12.9 0.00 0.69 0.00 67 1023.0